Вернуться в каталог

OPS 4682 DEB

АктивенPO
NORAD 38423·DEBRIS·🇺🇸 United States

Запущен Apr 3, 1965 с Vandenberg Space Force Base

Loading…

Ближайшие Пролёты (ближайшие 24 часа)

TLE

СвежийSource: Space-Track

Эпоха: Sep 13, 2026, 07:04 UTC

1 38423U 65027EC  26256.29485648  .00000401  00000-0  13966-2 0  9999
2 38423  90.2553  13.8295 0015656   9.8383 350.3040 12.95346540645524

Отслеживайте OPS 4682 DEB в реальном времени с AllMySat

Download on the App Store